This demonstration page uses our WeatherBlox Daily Observations layout. Learn more.

Left ArrowRight Arrow

Hourly Observations for July 19, 2018

Temp ( °F °C ) Dew Point ( °F °C ) Humidity (%) Winds ( mph kmh ) Pressure ( in mb ) Visibility ( mi km ) Precip ( " mm )
12:53 am 00:53 Clear 86 30 48 8.9 27 27 SSE 10 17 29.79 1009 10 16 0.00 0.00
1:53 am 01:53 Clear 80 26.7 49 9.4 34 34 SSE 7 11 29.79 1009 10 16 0.00 0.00
2:53 am 02:53 Clear 78 25.6 49 9.4 36 36 SE 9 15 29.79 1009 10 16 0.00 0.00
3:53 am 03:53 Clear 79 26.1 50 10 36 36 SE 7 11 29.79 1009 10 16 0.00 0.00
4:53 am 04:53 Clear 79 26.1 49 9.4 35 35 SE 9 15 29.78 1009 10 16 0.00 0.00
5:53 am 05:53 Clear 78 25.6 49 9.4 36 36 SE 10 17 29.79 1009 10 16 0.00 0.00
6:53 am 06:53 Clear 77 25 49 9.4 37 37 SE 9 15 29.79 1009 10 16 0.00 0.00
7:53 am 07:53 Sunny 79 26.1 50 10 36 36 SE 10 17 29.81 1009 10 16 0.00 0.00
8:53 am 08:53 Sunny 82 27.8 51 10.6 34 34 SE 12 19 29.82 1010 10 16 0.00 0.00
9:53 am 09:53 Sunny 88 31.1 51 10.6 28 28 SSE 13 20 29.83 1010 10 16 0.00 0.00
10:53 am 10:53 Sunny 93 33.9 52 11.1 25 25 S 15 24 29.82 1010 10 16 0.00 0.00
11:53 am 11:53 Sunny 98 36.7 51 10.6 20 20 SSE 17 28 29.82 1010 10 16 0.00 0.00
12:53 pm 12:53 Sunny 101 38.3 50 10 18 18 SSE 14 22 29.80 1009 10 16 0.00 0.00
1:53 pm 13:53 Sunny 102 38.9 49 9.4 17 17 SSE 13 20 29.79 1009 10 16 0.00 0.00
2:53 pm 14:53 Sunny 104 40 46 7.8 14 14 SE 12 19 29.77 1008 10 16 0.00 0.00
3:53 pm 15:53 Sunny 106 41.1 44 6.7 12 12 E 9 15 29.75 1007 10 16 0.00 0.00
4:53 pm 16:53 Sunny 106 41.1 45 7.2 13 13 VRB 6 9 29.73 1007 10 16 0.00 0.00
5:53 pm 17:53 Sunny 105 40.6 42 5.6 12 12 SE 12 19 29.71 1006 10 16 0.00 0.00
6:53 pm 18:53 Sunny 104 40 41 5 12 12 ESE 10 17 29.71 1006 10 16 0.00 0.00
7:53 pm 19:53 Sunny 102 38.9 40 4.4 12 12 ESE 9 15 29.72 1006 10 16 0.00 0.00
8:53 pm 20:53 Sunny 97 36.1 41 5 14 14 SE 10 17 29.73 1007 10 16 0.00 0.00
9:53 pm 21:53 Clear 90 32.2 42 5.6 19 19 SE 9 15 29.75 1007 10 16 0.00 0.00
10:53 pm 22:53 Clear 87 30.6 43 6.1 21 21 SE 9 15 29.78 1008 10 16 0.00 0.00
11:53 pm 23:53 Clear 87 30.6 43 6.1 21 21 SSE 12 19 29.78 1009 10 16 0.00 0.00

Powered by AerisWeather